アトラス彗星

C/2020 F2 ( ATLAS )

English version
Home page
Updated on August 15, 2020

---------------------------------------------------------------------

・ プロフィール

発見日 2020年3月21日、22日
発見光度 19.3等、19.3等
発見者 Asteroid Terrestrial-Impact Last Alert System (ATLAS) search program, Pan-STARRS 1 telescope (Haleakala)

・ 写真集

・ 軌道要素

Epoch 2022 June 30.0 TT = JDT 2459760.5
T 2022 July 15.65864 TT                                 Rudenko
q   8.8173291            (2000.0)            P               Q
z  -0.0005809      Peri.   48.35213     -0.89903312     -0.34781997
 +/-0.0000020      Node   250.27251     -0.43594232     +0.76806061
e   1.0051223      Incl.  163.58487     +0.04115512     +0.53768407
From 353 observations 2019 May 27-2020 July 25, mean residual 0".4.

・ 星図

・ 光度変化

        m1 = 3.5 + 5 logΔ + 10.0 log r

---------------------------------------------------------------------

軌道要素はM.P.E.C. 2020-P19に掲載されたものです。
星図はステラナビゲータ Ver.10 (アストロアーツ) で作成したものです。
光度グラフはComet for Windowsで作成したものです。

---------------------------------------------------------------------

Copyright(C) Seiichi Yoshida (comet@aerith.net). All rights reserved.